Voltar ao catálogo

ATLAS 5 CENTAUR DEB

LostHEO
NORAD 49352·DEBRIS·🇺🇸 United States

Lançado Oct 17, 2018 de Cape Canaveral Space Force Station

Loading…

Próximas Passagens (próximas 24 horas)

TLE

ObsoletoSource: Space-Track

Época: Jul 9, 2026, 01:22 UTC

1 49352U 18079FD  26190.05716732 -.00000121  00000-0  00000-0 0  9992
2 49352  12.5012  77.7056 4578460 230.5451  79.0256  1.68321044 29887

Acompanhe ATLAS 5 CENTAUR DEB em tempo real com AllMySat

Download on the App Store